GW3653 Weather Reports


Display with metric or nautical units.
time (UTC)temp
F
wind
direction
speed
MPH
gust
MPH
rain 1hr
in
rain 24hr
in
rain mn
in
humidity
%
barometer
mb
20260902122518 54 0.0 0.0 0.03 0.07 0.07 89 1021.7
20260902121518 54 0.0 0.0 0.03 0.07 0.07 89 1021.6
20260902120518 54 0.0 0.0 0.02 0.06 0.06 89 1021.6
20260902115518 54 0.0 0.0 0.01 0.05 0.05 88 1021.6
20260902114518 55 0.0 0.0 0.00 0.04 0.04 87 1021.5
20260902113559 55 0.0 0.0 0.00 0.04 0.04 88 1021.5
20260902112538 55 0.0 0.0 0.00 0.04 0.04 87 1021.4
20260902111518 55 0.0 0.0 0.00 0.04 0.04 86 1021.2
20260902110519 55 0.0 0.0 0.00 0.04 0.04 86 1021.1
20260902105538 55 0.0 0.0 0.00 0.04 0.04 86 1021.1
20260902104518 55 0.0 1.0 0.00 0.04 0.04 86 1021.0
20260902103518 55 0.0 0.0 0.00 0.04 0.04 86 1020.8
20260902102518 55 0.0 0.0 0.00 0.04 0.04 85 1020.7
20260902101518 56 0.0 0.0 0.00 0.04 0.04 84 1020.5
20260902100518 56 0.0 2.0 0.00 0.04 0.04 84 1020.5
20260902095518 57 0.0 1.0 0.00 0.04 0.04 85 1020.4
20260902094518 57 0.0 2.0 0.00 0.04 0.04 85 1020.3
20260902093517 57 135 1.0 7.0 0.00 0.04 0.04 85 1020.1
20260902092517 58 225 1.0 6.0 0.00 0.04 0.04 84 1020.2
20260902091558 59 225 1.0 8.0 0.00 0.04 0.04 81 1020.1
20260902090537 59 225 2.0 10.0 0.00 0.04 0.04 77 1019.9
20260902085538 59 225 2.0 9.0 0.00 0.04 0.04 78 1019.9
20260902084537 59 225 1.0 7.0 0.00 0.04 0.04 80 1019.7
20260902083518 59 225 1.0 7.0 0.00 0.04 0.04 80 1019.7
20260902082517 59 225 2.0 10.0 0.00 0.04 0.04 80 1019.7
20260902081517 60 225 1.0 6.0 0.00 0.04 0.04 80 1019.6
20260902080518 60 225 3.0 10.0 0.00 0.04 0.04 83 1019.5
20260902075517 58 225 1.0 7.0 0.00 0.04 0.04 89 1019.5
20260902074517 57 225 2.0 9.0 0.00 0.04 0.04 92 1019.4
20260902073518 57 225 1.0 6.0 0.01 0.04 0.04 91 1019.4
20260902072518 57 203 1.0 6.0 0.01 0.04 0.04 93 1019.3
20260902071517 56 225 2.0 8.0 0.01 0.04 0.04 91 1019.3
20260902070517 56 225 2.0 11.0 0.01 0.04 0.04 91 1019.1
20260902065517 56 225 2.0 10.0 0.01 0.04 0.04 91 1019.1
20260902064537 57 225 2.0 10.0 0.01 0.04 0.04 89 1019.2
20260902063517 59 225 3.0 12.0 0.00 0.03 0.03 82 1019.1
20260902062517 59 225 1.0 8.0 0.00 0.03 0.03 85 1019.0
20260902060518 62 225 2.0 12.0 0.00 0.03 0.03 77 1018.9
20260902055517 62 225 2.0 10.0 0.00 0.03 0.03 76 1019.0
20260902054517 61 225 4.0 13.0 0.00 0.03 0.03 77 1019.0
20260902053540 61 225 3.0 12.0 0.00 0.03 0.03 78 1018.9
20260902052519 61 225 3.0 12.0 0.00 0.03 0.03 78 1018.8
20260902051519 61 225 3.0 12.0 0.00 0.03 0.03 79 1018.8
20260902050519 61 225 4.0 14.0 0.00 0.03 0.03 82 1018.7
20260902045519 61 225 3.0 11.0 0.00 0.03 0.03 85 1018.9
20260902044519 59 225 4.0 13.0 0.00 0.03 0.03 91 1019.0
20260902043519 58 225 4.0 11.0 0.00 0.03 0.03 93 1019.0
20260902042518 57 225 3.0 9.0 0.00 0.03 0.03 93 1019.1
20260902041517 56 225 3.0 12.0 0.00 0.03 0.03 93 1019.1
20260902040519 56 225 3.0 14.0 0.01 0.03 0.03 93 1019.1
20260902035519 56 225 3.0 13.0 0.02 0.03 0.03 93 1019.2
20260902034519 57 248 2.0 9.0 0.02 0.03 0.03 93 1019.3
20260902033519 57 225 1.0 5.0 0.03 0.03 0.03 93 1019.3
20260902032518 57 248 1.0 8.0 0.03 0.03 0.03 93 1019.4
20260902031519 57 248 1.0 5.0 0.03 0.03 0.03 93 1019.5
20260902030559 57 248 1.0 4.0 0.02 0.02 0.02 93 1019.3
20260902025519 57 225 2.0 10.0 0.02 0.02 0.02 92 1019.4
20260902024518 57 225 2.0 8.0 0.01 0.01 0.01 91 1019.4
20260902023519 58 248 1.0 9.0 0.00 0.00 0.00 89 1019.3
20260902022519 58 270 1.0 7.0 0.00 0.00 0.00 88 1019.5
20260902021519 58 225 1.0 10.0 0.00 0.00 0.00 88 1019.3
20260902020539 57 270 3.0 10.0 0.00 0.00 0.00 88 1019.4
20260902015519 58 248 1.0 5.0 0.00 0.00 0.00 86 1019.3
20260902014518 57 248 2.0 12.0 0.00 0.00 0.00 87 1019.4
20260902013518 57 248 1.0 7.0 0.00 0.00 0.00 87 1019.4
20260902012518 57 270 1.0 8.0 0.00 0.00 0.00 86 1019.4
20260902011519 56 270 1.0 7.0 0.00 0.00 0.00 86 1019.3
20260902010519 56 248 2.0 11.0 0.00 0.00 0.00 85 1019.3
20260902005518 56 270 1.0 7.0 0.00 0.00 0.00 88 1019.2
20260902004538 55 0.0 3.0 0.00 0.00 0.00 88 1019.2
20260902003519 55 248 1.0 6.0 0.00 0.00 0.00 87 1019.2
20260902002518 55 0.0 4.0 0.00 0.00 0.00 87 1019.3
20260902001519 55 248 1.0 7.0 0.00 0.00 0.00 85 1019.2
20260902000519 55 248 1.0 6.0 0.00 0.00 0.00 86 1019.1
20260901235518 54 0.0 5.0 0.00 0.00 0.00 87 1019.0
20260901234518 54 248 1.0 4.0 0.00 0.00 0.00 86 1019.0
20260901233518 54 0.0 3.0 0.00 0.00 0.00 85 1018.9
20260901232518 54 0.0 3.0 0.00 0.00 0.00 84 1018.9
20260901231518 54 0.0 4.0 0.00 0.01 0.00 84 1019.1
20260901230538 54 248 1.0 8.0 0.00 0.01 0.00 83 1018.9
20260901225518 54 270 1.0 7.0 0.00 0.01 0.00 82 1018.9
20260901224518 54 0.0 4.0 0.00 0.01 0.00 83 1018.8
20260901223518 54 270 1.0 6.0 0.00 0.01 0.00 82 1018.8
20260901222518 54 0.0 4.0 0.00 0.01 0.00 82 1018.8
20260901221518 54 0.0 2.0 0.00 0.01 0.00 82 1018.8
20260901220518 54 0.0 2.0 0.00 0.01 0.00 82 1018.7
20260901215518 54 270 1.0 12.0 0.00 0.01 0.00 81 1018.8
20260901214518 54 270 1.0 5.0 0.00 0.01 0.00 80 1019.0
20260901213518 54 0.0 3.0 0.00 0.01 0.00 80 1018.8
20260901212518 54 0.0 3.0 0.00 0.01 0.00 80 1018.8
20260901211518 54 0.0 1.0 0.00 0.01 0.00 80 1018.7
20260901210519 54 0.0 3.0 0.00 0.01 0.00 80 1018.8
20260901205518 54 0.0 3.0 0.00 0.01 0.00 80 1018.7
20260901204518 54 0.0 3.0 0.00 0.01 0.00 81 1018.9
20260901203538 54 0.0 0.0 0.00 0.01 0.00 80 1018.9
20260901202518 54 248 1.0 7.0 0.00 0.01 0.00 80 1018.7
20260901201518 54 0.0 5.0 0.00 0.01 0.00 80 1018.9
20260901200518 54 0.0 3.0 0.00 0.01 0.00 79 1018.8
20260901195518 54 270 1.0 9.0 0.00 0.01 0.00 79 1018.9
20260901194518 54 0.0 4.0 0.00 0.01 0.00 78 1019.0
20260901193538 54 248 1.0 8.0 0.00 0.01 0.00 78 1019.1
20260901192518 54 0.0 2.0 0.00 0.01 0.00 78 1019.0
20260901191518 55 248 1.0 8.0 0.00 0.01 0.00 77 1019.1
20260901190518 54 0.0 6.0 0.00 0.01 0.00 77 1019.3
20260901185518 54 0.0 2.0 0.00 0.01 0.00 77 1019.2
20260901184518 54 0.0 5.0 0.00 0.01 0.00 77 1019.3
20260901183517 55 0.0 3.0 0.00 0.01 0.00 77 1019.4
20260901182518 55 0.0 6.0 0.00 0.01 0.00 77 1019.6
20260901181518 55 270 1.0 8.0 0.00 0.01 0.00 77 1019.7
20260901180538 55 0.0 5.0 0.00 0.01 0.00 77 1019.8
20260901175518 55 0.0 3.0 0.00 0.01 0.00 76 1019.9
20260901174517 55 0.0 1.0 0.00 0.01 0.00 77 1019.9
20260901173558 55 0.0 2.0 0.00 0.01 0.00 76 1019.8
20260901172517 55 0.0 1.0 0.00 0.01 0.00 77 1019.9
20260901171731 55 0.0 0.0 0.00 0.01 0.00 77 1020.0
20260901170518 55 0.0 3.0 0.00 0.01 0.00 77 1020.2
20260901165517 55 0.0 7.0 0.00 0.01 0.00 76 1020.2
20260901164517 55 0.0 0.0 0.00 0.01 0.00 76 1020.3
20260901163517 55 0.0 1.0 0.00 0.01 0.00 76 1020.2
20260901162518 55 0.0 2.0 0.00 0.01 0.00 76 1020.3
20260901161517 55 0.0 2.0 0.00 0.01 0.00 76 1020.3
20260901160518 55 0.0 4.0 0.00 0.01 0.00 76 1020.4
20260901155518 55 0.0 1.0 0.00 0.01 0.01 76 1020.6
20260901154518 55 0.0 1.0 0.00 0.01 0.01 75 1020.7
20260901153518 55 0.0 1.0 0.00 0.01 0.01 75 1020.8
20260901152517 55 0.0 3.0 0.00 0.01 0.01 75 1020.9
20260901151517 55 0.0 2.0 0.00 0.01 0.01 75 1021.1
20260901150518 55 0.0 1.0 0.00 0.01 0.01 75 1021.0
20260901145518 55 0.0 0.0 0.00 0.01 0.01 74 1021.1
20260901144517 55 0.0 1.0 0.00 0.01 0.01 74 1021.0
20260901143518 56 0.0 2.0 0.00 0.01 0.01 73 1021.2
20260901142517 56 0.0 3.0 0.00 0.01 0.01 73 1021.3
20260901141537 56 270 1.0 7.0 0.00 0.02 0.01 72 1021.4
20260901140517 56 0.0 4.0 0.00 0.02 0.01 72 1021.5
20260901135518 56 248 1.0 8.0 0.00 0.02 0.01 72 1021.6
20260901134518 56 0.0 3.0 0.00 0.02 0.01 72 1021.7
20260901133518 56 0.0 8.0 0.00 0.02 0.01 73 1021.9
20260901132537 56 248 1.0 9.0 0.00 0.02 0.01 73 1022.0
20260901131517 55 0.0 2.0 0.00 0.03 0.01 74 1022.0
20260901130518 55 0.0 1.0 0.00 0.03 0.01 74 1022.0
20260901125538 55 0.0 6.0 0.00 0.04 0.01 75 1022.1
20260901124517 55 0.0 1.0 0.00 0.04 0.01 75 1022.2
20260901123558 55 0.0 1.0 0.00 0.04 0.01 75 1022.3